Regional Weather Roundup
Issued by NWS

Home | Current Version | Previous Version | Graphics & Text | Print | Product List | Glossary On
Versions: 1 2 3 4 5 6 7 8 9 10 11 12 13 14 15 16 17 18 19 20 21 22 23 24 25 26 27 28 29 30 31 32 33 34 35 36 37 38 39 40 41 42 43 44 45 46 47 48 49 50
000
ASUS43 KTOP 260708
RWRKS

WEATHER ROUNDUP FOR KANSAS
NATIONAL WEATHER SERVICE GOODLAND KS
200 AM CDT THU MAY 26 2016

NOTE:  "FAIR" INDICATES FEW OR NO CLOUDS BELOW 12,000 FEET WITH NO
SIGNIFICANT WEATHER AND/OR OBSTRUCTIONS TO VISIBILITY.

KSZ001>006-013>018-027>032-041>047-260800-
NORTHWEST KANSAS

CITY           SKY/WX    TMP DP  RH WIND       PRES   REMARKS
GOODLAND       PTCLDY    49  46  90 E7        29.92F
HAYS           CLEAR     52  48  87 E7        29.88F
HILL CITY      CLEAR     55  51  86 SE6       29.89R
RUSSELL        CLEAR     61  57  87 E9        29.87F
$$

KSZ061>065-074>080-084>089-260800-
SOUTHWEST KANSAS

CITY           SKY/WX    TMP DP  RH WIND       PRES   REMARKS
DODGE CITY     LGT RAIN  68  68 100 NE21G28   29.86F FOG
ELKHART          N/A     68  33  27 SW9         N/A
GARDEN CITY    CLOUDY    67  65  93 E25G33    29.86R
GREAT BEND     CLOUDY    68  61  77 NE13      29.87F
LIBERAL        CLEAR     55  43  62 SW6       29.82F
PRATT          CLEAR     69  63  81 S9        29.85S
$$

KSZ066>073-081>083-090>101-260800-
SOUTHEAST KANSAS

CITY           SKY/WX    TMP DP  RH WIND       PRES   REMARKS
CHANUTE        CLOUDY    76  72  87 S13       29.86F
COFFEYVILLE    CLOUDY    78  73  84 VRB7      29.89R
HUTCHINSON     CLOUDY    73  70  90 N7        29.86R
MEDICINE LODGE   N/A     75  70  84 S15G23    29.82F
NEWTON         CLEAR     72  68  88 SW6       29.88S
PARSONS        CLOUDY    77  73  87 S7        29.89S
WICHITA INTL   PTCLDY    73  70  90 S6        29.84S
WICHITA JABRA  CLEAR     73  72  96 S8        29.84F
WICHITA MCCONL CLEAR     73  72  94 S7        29.84F FOG
WINFIELD       CLOUDY    74  72  93 S9        29.85S
$$

KSZ007>012-019>026-033>040-048>060-102>105-260800-
NORTHEAST KANSAS

CITY           SKY/WX    TMP DP  RH WIND       PRES   REMARKS
CONCORDIA      CLEAR     62  54  74 NE8       29.86F
EMPORIA        CLOUDY    73  71  93 S8        29.84F
LAWRENCE       CLOUDY    70  60  70 S5        29.82F
MANHATTAN      MOCLDY    66  59  78 NW6       29.85R
MARYSVILLE     PTCLDY    66  64  94 NW10      29.86S
OLATHE IND     TSTM      76  55  48 SW16G40   29.87F
OLATHE EXE     TSTM      67  60  78 SW13G21   29.91F
SALINA         CLEAR     68  64  87 N9        29.85S
TOPEKA BILLARD CLOUDY    67  61  81 SW6       29.83S
TOPEKA FORBES  CLOUDY    68  62  81 SW6       29.83F
$$




USA.gov is the U.S. government's official web portal to all federal, state and local government web resources and services.